Simultaneous Nadir Overpasses (SNOs) Predictions

Prediction of SNOs between AQUA and NOAA-19 Satellite Orbit:

Table of predicted SNOs for the next 14.0 days since TLE Epoch: 7/3/2021
Index Date (AQUA) Time (AQUA) Lat,Lon (AQUA) SZA (AQUA ) Date (NOAA-19) Time (NOAA-19) Lat,Lon (NOAA-19) SZA (NOAA-19 ) Distance(km) Time Diff (sec)
1 07/04/2021 02:39:49 -78.74, -62.22 123.17 07/04/2021 02:38:46 -78.71, -62.15 123.18 3.65 63
2 07/04/2021 03:29:16 78.73, 105.46 56.83 07/04/2021 03:29:43 78.77, 105.51 56.85 3.84 27
3 07/06/2021 09:03:01 -78.75,-158.08 122.93 07/06/2021 09:02:55 -78.72,-158.05 122.96 3.78 6
4 07/08/2021 14:36:46 78.72, -61.36 57.29 07/08/2021 14:36:01 78.72, -61.20 57.29 3.52 45
5 07/08/2021 15:26:12 -78.72, 106.28 122.71 07/08/2021 15:27:03 -78.75, 106.27 122.70 3.49 51
6 07/10/2021 20:10:29 -78.66, 35.53 122.51 07/10/2021 20:09:17 -78.57, 34.53 122.48 24.25 72
7 07/10/2021 20:59:58 78.74,-157.26 57.60 07/10/2021 21:00:10 78.70,-157.29 57.57 4.13 12
8 07/13/2021 02:33:42 -78.72, -60.60 122.11 07/13/2021 02:33:22 -78.71, -60.48 122.13 3.35 20
9 07/13/2021 03:23:09 78.72, 107.05 57.90 07/13/2021 03:24:17 78.75, 107.10 57.90 3.44 68
10 07/15/2021 08:07:26 78.67, 36.27 58.16 07/15/2021 08:06:27 78.68, 36.16 58.21 2.88 59



Historial Predications of SNOs between AQUA and NOAA-19
